Temp
-0 -0 -1 -1 -1 -3 -4 -5 -6 -5 -5 -5 -5 -6 -5 -4 -3 -2 -1 -1 -0 -0 0 1 2 2 2 2 2 1 2 3 4 6 7 8 8 8 7 7 7 8 8 7 8
-0 -1 -1 -3 -4 -6 -6 -6 -6 -6 -6 -6 -6 -6 -6 -5 -5 -2 -2 -1 -1 -1 -1 1 2 1 1 2 1 2 2 3 5 6 6 7 7 7 7 7 7 7 7 8 8
-1 -2 -3 -5 -6 -6 -6 -6 -6 -6 -6 -7 -7 -6 -6 -5 -5 -3 -3 -2 -1 -0 -1 0 0 1 1 1 1 2 2 4 4 5 6 6 6 7 6 7 7 7 7 8 8
-2 -4 -6 -6 -6 -6 -6 -6 -7 -7 -7 -7 -7 -7 -7 -6 -6 -5 -2 -2 -1 -1 -1 -1 0 0 -0 1 2 2 3 3 4 4 4 5 6 6 6 6 7 7 7 7 8
-3 -6 -6 -6 -7 -7 -7 -7 -7 -7 -7 -7 -7 -7 -7 -7 -5 -5 -5 -3 -2 -2 -1 -1 0 -0 -0 1 0 1 2 3 3 4 4 5 5 6 5 6 6 6 6 7 8
-4 -5 -6 -6 -7 -7 -7 -7 -7 -7 -7 -7 -7 -7 -7 -6 -6 -6 -5 -3 -2 -2 -1 -1 -0 -1 -1 -0 -0 0 2 2 3 3 3 4 4 4 5 5 5 6 7 7 7
-5 -5 -7 -7 -7 -7 -7 -7 -7 -7 -7 -7 -7 -7 -6 -5 -7 -6 -5 -4 -3 -2 -2 -1 -1 -2 -1 -0 -0 0 1 2 2 2 3 4 3 4 4 4 5 6 6 6 7
-5 -6 -6 -7 -7 -7 -7 -7 -7 -7 -7 -7 -7 -7 -6 -6 -6 -5 -5 -4 -3 -2 -2 -2 -3 -2 -1 -1 -0 -0 0 0 2 1 2 2 4 4 5 5 6 5 6 6 7
-5 -5 -6 -6 -7 -7 -7 -7 -7 -7 -7 -7 -7 -7 -7 -7 -6 -6 -5 -4 -4 -3 -2 -3 -3 -2 -1 -1 -1 -0 0 1 1 2 1 2 2 4 4 4 5 5 6 6 7
-5 -5 -5 -6 -6 -7 -7 -7 -7 -7 -7 -7 -7 -8 -7 -8 -7 -6 -5 -4 -3 -3 -2 -2 -3 -2 -2 -1 -1 0 1 1 1 2 3 3 3 3 3 3 4 5 6 6 7
-4 -5 -5 -6 -7 -7 -7 -7 -7 -7 -8 -8 -8 -8 -8 -7 -7 -6 -5 -3 -3 -2 -2 -2 -2 -1 1 -0 1 1 1 1 2 2 2 3 2 3 2 3 4 5 6 6 6
-3 -4 -5 -5 -6 -7 -7 -7 -7 -8 -8 -8 -7 -8 -7 -7 -6 -6 -5 -4 -3 -2 -2 -3 -2 -1 -1 -1 0 1 2 2 2 3 3 2 2 2 3 2 4 5 5 5 5
-2 -3 -4 -5 -6 -6 -7 -7 -7 -7 -8 -8 -8 -7 -7 -6 -6 -6 -4 -4 -3 -3 -2 -3 -3 -2 -1 -1 0 1 1 2 2 1 1 2 2 2 2 3 4 5 6 5 5
-1 -2 -2 -3 -4 -5 -6 -7 -6 -6 -7 -7 -7 -6 -6 -5 -5 -5 -4 -4 -3 -3 -3 -2 -1 -1 -2 -1 0 1 1 2 2 1 1 1 2 4 3 4 4 4 5 5 5
-1 -1 -1 -1 -2 -3 -4 -5 -5 -6 -5 -5 -5 -5 -5 -5 -4 -4 -3 -3 -3 -3 -2 -2 -2 -2 -2 -1 -0 1 1 1 0 1 1 1 1 4 3 3 3 3 4 5 5
-1 -1 -2 -1 -1 -2 -3 -4 -5 -5 -4 -5 -5 -5 -4 -4 -4 -4 -4 -3 -3 -3 -3 -2 -2 -2 -2 -1 -1 -1 0 -0 -0 0 -0 2 2 1 3 4 3 2 3 3 3
-1 -1 -1 -1 -1 -2 -2 -3 -4 -5 -5 -4 -4 -4 -3 -3 -3 -3 -3 -3 -3 -3 -3 -3 -3 -2 -2 -2 -2 -1 -1 -1 -1 -1 -0 2 2 3 3 2 2 2 1 2 2
-1 -1 -1 -0 -0 -1 -1 -2 -4 -5 -5 -4 -4 -3 -3 -3 -3 -3 -2 -3 -3 -2 -2 -3 -3 -2 -2 -2 -1 -1 0 1 -0 -2 -1 0 1 3 2 1 0 1 1 1 1
-1 -1 -1 -0 0 -0 -1 -2 -4 -4 -4 -4 -3 -3 -3 -3 -2 -3 -3 -2 -2 -2 -2 -3 -4 -3 -2 -2 -1 -1 -1 -1 0 1 0 1 1 1 1 1 1 1 1 1 1
-1 -1 -1 -1 -1 0 0 -3 -4 -4 -3 -3 -3 -2 -3 -2 -2 -2 -2 -2 -2 -2 -2 -3 -3 -3 -3 -2 -2 -2 -1 -1 0 -3 -0 1 2 2 0 1 0 -0 -0 1 1
-1 -1 -1 -1 -1 -0 -0 -1 -3 -4 -3 -3 -3 -2 -2 -2 -1 -1 -2 -2 -2 -2 -2 -2 -2 -3 -3 -3 -2 -2 -2 -1 -0 0 -1 -1 1 2 3 2 -0 -1 0 1 1
-1 -1 -2 -1 -1 -2 -2 -2 -2 -2 -3 -3 -3 -2 -2 -2 -1 -2 -2 -2 -2 -2 -2 -2 -2 -3 -3 -3 -2 -2 -2 -1 -1 -0 -0 -0 0 1 1 -0 -1 -0 0 1 1
-2 -2 -2 -2 -2 -3 -3 -2 -2 -2 -2 -3 -3 -3 -2 -2 -2 -2 -2 -2 -2 -2 -2 -2 -2 -3 -3 -3 -2 -2 -1 -1 -1 -1 -0 -1 -1 -0 -1 -1 -1 -0 0 1 1
-3 -2 -2 -2 -3 -3 -3 -3 -3 -2 -2 -2 -2 -2 -2 -2 -2 -2 -2 -2 -2 -2 -2 -2 -2 -2 -2 -1 -1 -2 -1 -2 -2 -1 -0 0 0 -1 -1 -1 -1 -0 1 1 1
-4 -3 -3 -3 -4 -3 -4 -4 -4 -3 -2 -2 -2 -3 -2 -2 -2 -2 -2 -2 -2 -2 -2 -2 -2 -2 -1 -1 -1 -2 -2 -3 -2 -1 -1 -0 0 -0 -1 -1 -1 -0 -0 -0 -0
-5 -4 -4 -3 -4 -4 -4 -4 -4 -4 -3 -3 -3 -3 -3 -2 -2 -2 -3 -3 -3 -3 -3 -2 -2 -2 -2 -2 -2 -2 -2 -2 -2 -2 -1 -1 -1 -1 -1 -1 -1 -0 -0 -0 0
-5 -5 -4 -4 -4 -5 -5 -5 -4 -4 -3 -3 -2 -3 -3 -3 -2 -3 -3 -3 -3 -3 -3 -3 -3 -2 -3 -3 -3 -2 -0 -1 -1 -1 -1 -1 -0 -1 -1 -0 0 0 -0 0 0
Height
3050 3045 3041 3037 3033 3029 3026 3024 3022 3021 3021 3023 3024 3026 3029 3029 3033 3039 3042 3050 3058 3065 3070 3075 3081 3087 3092 3098 3103 3109 3106 3111 3118 3124 3128 3134 3137 3138 3142 3145 3148 3151 3149 3152 3155
3045 3040 3035 3031 3027 3024 3021 3018 3016 3015 3014 3015 3017 3019 3022 3024 3025 3028 3035 3043 3054 3061 3065 3070 3075 3082 3087 3092 3096 3100 3102 3107 3117 3123 3126 3129 3134 3136 3139 3142 3145 3148 3148 3150 3154
3039 3034 3029 3025 3022 3018 3015 3013 3010 3009 3007 3008 3009 3012 3014 3017 3017 3017 3028 3038 3048 3056 3061 3066 3071 3078 3084 3088 3092 3096 3098 3106 3114 3119 3121 3125 3130 3134 3136 3140 3143 3146 3146 3148 3151
3034 3029 3024 3020 3016 3013 3010 3007 3005 3004 3002 3002 3002 3005 3008 3011 3016 3016 3020 3036 3044 3050 3055 3061 3067 3073 3079 3082 3088 3094 3098 3104 3113 3114 3118 3123 3126 3128 3134 3138 3141 3141 3141 3143 3149
3030 3024 3020 3014 3009 3006 3003 3002 3001 2999 2998 2999 2999 3001 3003 3005 3009 3014 3016 3027 3039 3044 3050 3056 3062 3069 3074 3079 3086 3089 3096 3103 3107 3108 3114 3117 3122 3125 3130 3134 3136 3135 3139 3142 3145
3028 3021 3013 3006 3002 2999 2997 2996 2996 2997 2997 2997 2998 3000 3001 3003 3008 3011 3014 3021 3030 3039 3046 3052 3058 3067 3074 3080 3084 3087 3093 3098 3103 3104 3108 3112 3117 3123 3126 3130 3130 3133 3137 3139 3141
3024 3015 3006 2998 2994 2994 2992 2993 2994 2995 2996 2996 2997 2998 2999 3001 3004 3006 3012 3016 3024 3034 3042 3049 3058 3066 3071 3077 3081 3087 3092 3094 3099 3100 3105 3108 3113 3115 3121 3123 3126 3129 3132 3135 3137
3021 3011 3002 2995 2991 2989 2990 2990 2992 2994 2995 2996 2996 2996 2995 2998 3001 3003 3008 3014 3022 3029 3038 3048 3057 3064 3072 3075 3079 3085 3089 3093 3095 3099 3103 3107 3107 3112 3117 3120 3122 3124 3128 3131 3133
3019 3010 3000 2994 2990 2989 2989 2990 2992 2994 2994 2994 2995 2993 2993 2994 2996 3000 3005 3012 3020 3029 3038 3047 3055 3061 3068 3072 3077 3080 3084 3089 3093 3097 3101 3102 3104 3110 3111 3114 3118 3121 3124 3126 3129
3020 3011 3001 2997 2993 2992 2992 2992 2992 2993 2993 2993 2992 2994 2991 2993 2992 2996 3003 3010 3017 3026 3036 3043 3050 3057 3063 3068 3069 3075 3081 3086 3088 3091 3096 3098 3100 3107 3108 3111 3114 3117 3119 3121 3124
3021 3013 3006 3000 2996 2994 2994 2993 2995 2994 2992 2992 2991 2990 2989 2990 2991 2995 2999 3006 3016 3024 3016 3036 3045 3044 3047 3057 3069 3075 3080 3083 3087 3089 3093 3095 3098 3103 3105 3106 3109 3112 3115 3116 3118
3023 3015 3010 3004 2999 2996 2993 2991 2990 2991 2989 2988 2988 2989 2986 2987 2989 2992 2997 3006 3015 3018 3028 3038 3039 3048 3057 3064 3070 3075 3078 3080 3085 3086 3090 3093 3095 3099 3101 3101 3104 3107 3109 3111 3113
3025 3019 3013 3008 3001 2998 2994 2992 2991 2989 2989 2990 2989 2987 2988 2989 2990 2991 2996 3003 2998 3013 3025 3034 3041 3048 3056 3062 3068 3072 3074 3078 3082 3083 3086 3091 3092 3092 3094 3096 3098 3100 3103 3105 3106
3027 3021 3016 3012 3008 3001 2998 2994 2994 2993 2991 2995 2990 2988 2989 2989 2994 2996 2999 3004 3003 3018 3031 3038 3042 3046 3052 3058 3066 3070 3073 3077 3078 3082 3085 3088 3088 3084 3088 3090 3092 3094 3097 3098 3100
3029 3024 3018 3012 3009 3005 3002 2999 2995 2995 2998 3000 2996 2993 2992 2996 3000 2999 3004 3007 3011 3021 3028 3036 3038 3044 3049 3055 3065 3070 3073 3075 3077 3082 3084 3086 3089 3081 3084 3085 3087 3088 3090 3092 3093
3030 3025 3020 3016 3011 3007 3003 3000 2999 2999 2998 2999 3000 2997 2998 2996 3000 3004 3010 3015 3017 3022 3028 3034 3040 3046 3048 3053 3060 3065 3070 3075 3079 3082 3084 3080 3082 3079 3078 3080 3082 3083 3086 3088 3089
3030 3026 3020 3017 3013 3011 3006 3003 3002 3005 3009 3006 2997 3003 3005 3008 3009 3009 3010 3014 3018 3027 3034 3038 3042 3045 3048 3051 3058 3063 3068 3076 3082 3081 3077 3074 3078 3075 3076 3076 3079 3081 3082 3084 3086
3029 3026 3022 3018 3014 3012 3010 3007 3006 3013 3012 3013 3010 3011 3010 3012 3014 3014 3018 3021 3025 3029 3034 3039 3046 3045 3046 3050 3054 3061 3063 3066 3069 3073 3072 3075 3073 3073 3073 3074 3076 3078 3081 3083 3084
3029 3027 3023 3019 3016 3014 3012 3009 3013 3014 3016 3018 3018 3019 3018 3019 3020 3020 3023 3026 3029 3032 3034 3037 3041 3042 3045 3048 3055 3058 3061 3065 3064 3065 3068 3069 3071 3072 3071 3071 3074 3077 3079 3080 3082
3029 3026 3023 3019 3017 3016 3014 3012 3015 3017 3017 3017 3022 3022 3021 3021 3023 3023 3027 3030 3032 3034 3034 3036 3038 3041 3044 3048 3052 3055 3062 3065 3064 3069 3068 3064 3063 3062 3064 3066 3071 3073 3075 3077 3079
3027 3024 3022 3020 3019 3019 3017 3015 3017 3019 3019 3018 3019 3021 3021 3023 3025 3026 3029 3032 3033 3035 3035 3037 3038 3044 3044 3046 3049 3053 3056 3059 3061 3062 3062 3064 3061 3057 3061 3063 3068 3071 3072 3075 3076
3025 3024 3022 3020 3021 3018 3020 3020 3019 3018 3020 3020 3021 3021 3024 3025 3026 3027 3029 3031 3034 3035 3037 3038 3039 3043 3046 3048 3049 3049 3054 3057 3058 3060 3060 3059 3059 3057 3059 3063 3065 3068 3070 3072 3073
3023 3024 3022 3020 3020 3020 3021 3022 3022 3022 3020 3021 3022 3023 3024 3026 3029 3029 3030 3032 3034 3035 3036 3038 3041 3042 3046 3050 3050 3051 3053 3056 3056 3059 3057 3059 3060 3058 3059 3062 3065 3066 3067 3068 3068
3020 3021 3022 3020 3020 3020 3022 3023 3024 3024 3024 3023 3024 3024 3025 3026 3028 3029 3029 3032 3033 3035 3036 3038 3039 3040 3042 3042 3045 3047 3050 3052 3054 3056 3056 3057 3057 3059 3060 3062 3064 3064 3064 3065 3064
3018 3019 3019 3019 3019 3019 3020 3022 3024 3025 3025 3025 3026 3027 3029 3029 3029 3030 3030 3031 3033 3034 3035 3037 3038 3040 3041 3042 3043 3044 3045 3047 3048 3052 3055 3056 3056 3056 3059 3061 3061 3061 3061 3061 3060
3019 3017 3019 3019 3019 3019 3020 3022 3022 3024 3025 3026 3027 3027 3028 3029 3030 3031 3030 3030 3032 3033 3035 3036 3038 3040 3041 3041 3041 3042 3042 3043 3045 3047 3050 3052 3053 3056 3057 3057 3058 3058 3058 3058 3057
3017 3017 3016 3018 3017 3020 3019 3019 3019 3020 3023 3024 3025 3026 3027 3028 3029 3029 3030 3031 3031 3032 3033 3035 3037 3039 3040 3040 3040 3039 3036 3037 3039 3041 3045 3047 3050 3052 3053 3054 3055 3055 3055 3055 3054
Wind_Speed
29 31 29 31 31 30 29 26 25 24 21 23 23 28 25 31 40 42 42 38 33 22 26 28 30 31 32 35 34 34 23 31 30 25 23 13 21 20 19 21 13 17 16 11 11
33 31 30 30 28 25 28 27 26 24 23 24 28 25 29 27 30 44 46 40 29 27 23 28 31 30 30 34 35 37 38 34 27 24 24 21 13 18 23 24 18 17 21 17 14
31 28 27 26 26 28 27 27 26 25 25 24 26 29 31 29 31 43 46 39 30 26 24 26 28 29 29 29 32 37 36 42 27 20 24 25 14 26 15 17 20 17 21 24 21
30 26 25 26 29 28 28 26 24 21 20 17 17 22 29 31 14 14 32 35 27 27 26 28 29 31 30 32 35 32 36 21 21 23 30 27 21 20 16 16 14 21 23 24 25
30 27 28 30 32 30 27 24 20 17 13 11 11 16 20 28 25 10 18 30 26 34 28 29 30 31 31 32 28 31 15 24 14 27 31 29 30 24 18 21 18 25 24 25 20
30 34 32 34 34 27 22 17 14 9 6 6 8 10 14 24 15 17 19 26 42 37 29 32 30 29 28 13 25 24 23 13 21 25 28 33 36 24 23 19 25 26 27 25 23
36 40 35 29 23 19 18 13 10 5 4 4 5 6 13 16 8 17 23 25 41 36 32 30 26 30 22 21 21 8 24 21 21 21 27 27 30 32 28 25 25 26 29 26 23
34 39 33 26 19 16 10 8 6 6 4 4 7 10 13 7 18 21 27 26 40 35 35 29 24 29 17 24 22 23 19 21 23 19 19 23 26 27 29 29 28 25 25 24 24
37 41 32 24 16 8 5 0 4 7 5 7 9 11 12 8 16 21 28 30 42 34 31 31 29 30 25 21 18 27 13 25 21 28 22 24 18 15 16 23 28 29 26 25 26
39 39 30 23 16 10 5 2 4 7 9 12 9 10 13 7 14 21 29 34 35 30 32 33 34 31 33 23 24 26 25 23 28 27 32 29 29 6 20 23 22 20 25 29 30
38 33 30 23 17 12 8 7 5 9 11 9 9 9 13 9 14 22 32 39 33 36 30 37 35 42 46 39 25 18 26 20 22 18 28 31 25 24 15 20 22 22 25 24 24
37 35 27 22 18 16 12 9 10 13 12 10 9 10 14 8 15 18 26 32 38 45 38 35 42 36 34 26 21 15 20 25 14 25 20 15 24 26 19 24 27 25 27 25 24
31 32 27 23 19 17 17 19 15 9 5 7 4 6 7 8 12 22 16 20 15 46 41 36 29 30 30 24 24 20 17 24 21 15 18 15 18 23 29 30 28 26 26 26 28
26 26 24 22 20 17 16 15 13 10 6 10 8 3 11 16 9 21 14 17 19 37 29 21 13 32 32 31 26 22 14 17 17 14 9 22 5 17 24 26 27 27 27 28 30
23 20 21 18 17 15 12 10 11 7 2 6 11 24 14 5 25 17 21 17 27 31 24 12 15 34 27 30 23 16 19 15 14 12 3 13 7 10 20 23 23 24 24 26 27
21 23 17 14 14 16 15 12 9 6 6 10 6 5 15 15 12 19 19 14 24 23 17 16 14 12 34 28 27 18 21 14 10 8 4 16 16 17 23 21 20 21 20 20 21
19 21 20 14 12 16 14 9 8 8 7 13 14 23 26 23 15 9 16 23 16 19 15 17 19 20 20 19 19 25 24 7 4 4 3 11 14 11 12 15 21 18 16 15 15
17 18 19 11 10 16 9 16 11 9 15 18 21 22 23 20 20 18 24 22 16 16 16 13 7 21 21 27 23 24 24 6 5 4 4 10 6 4 18 21 20 19 16 14 15
13 14 18 13 7 12 13 12 4 8 14 13 9 13 8 7 12 22 22 18 12 18 5 7 3 20 22 25 25 25 24 12 1 1 5 9 7 13 19 24 20 17 16 16 15
11 12 15 12 9 7 7 10 10 11 10 13 7 8 10 10 10 9 6 9 12 8 5 10 9 12 20 28 26 24 22 8 4 3 3 8 9 11 26 25 20 18 17 18 16
12 9 12 10 6 5 3 5 7 7 8 7 10 9 11 7 11 9 4 10 10 10 12 8 5 5 15 7 17 24 18 8 6 4 1 4 4 10 14 25 21 17 19 13 12
11 6 8 6 4 5 6 4 6 7 7 8 9 7 5 5 7 7 8 7 13 12 6 6 8 7 6 8 8 12 9 19 3 4 5 1 2 7 10 22 23 19 15 14 14
8 6 4 4 2 5 4 2 4 7 7 5 4 4 10 5 4 6 4 8 11 9 7 5 6 7 3 5 15 17 17 16 18 8 6 0 2 9 13 20 19 14 13 14 16
7 4 4 1 1 4 1 1 3 3 6 4 4 5 5 2 4 2 2 5 8 8 6 6 7 4 4 3 5 15 22 20 17 10 4 5 10 18 21 18 10 13 13 13 14
7 5 6 4 5 4 6 3 3 4 2 4 2 3 3 1 1 1 5 5 6 7 9 6 4 6 5 3 3 6 13 22 25 20 8 4 6 14 12 9 13 12 12 12 13
9 7 9 8 5 3 1 0 6 6 6 3 2 3 5 3 6 3 3 2 3 7 9 10 4 7 6 7 8 10 10 13 19 23 23 12 14 16 16 17 14 12 12 11 11
11 9 9 8 10 3 7 8 6 9 7 10 7 4 3 6 4 4 7 10 7 5 8 7 8 4 3 4 6 11 15 20 18 17 22 27 20 14 17 18 16 13 11 10 11
Wind_Direction
326 319 313 313 309 304 302 301 300 297 290 271 259 238 239 251 236 229 231 232 222 228 225 221 221 212 212 213 205 204 213 215 216 220 228 215 217 214 204 207 234 222 228 202 200
328 322 316 312 307 304 302 303 300 296 286 263 250 244 232 243 250 232 231 226 218 218 219 217 215 208 209 213 201 199 213 216 204 218 229 226 235 218 214 211 200 213 224 211 196
330 322 317 311 302 301 301 303 300 294 287 273 256 248 230 232 249 238 228 221 212 208 214 211 208 208 205 209 201 204 217 221 215 223 219 232 229 222 218 231 225 226 243 221 219
331 323 321 314 304 301 301 305 299 294 283 274 266 246 233 231 242 227 235 218 203 197 204 210 202 197 201 209 207 211 222 200 208 224 213 228 213 225 204 230 220 216 221 237 226
331 328 322 306 302 302 295 297 295 289 279 268 256 241 234 234 220 179 172 192 199 195 196 203 204 193 199 208 204 208 193 205 201 224 223 224 216 215 222 212 215 213 215 231 237
345 337 320 307 305 308 301 297 292 273 270 268 266 249 235 228 225 210 183 190 196 201 200 201 199 188 199 212 200 222 189 193 214 226 222 225 223 214 212 218 230 224 225 231 238
348 345 337 325 316 306 297 290 276 240 223 243 266 268 243 230 208 221 195 190 193 205 204 201 196 181 193 202 201 189 202 181 200 232 229 230 232 214 213 215 222 227 235 235 238
352 355 348 342 327 312 306 285 214 188 218 280 286 280 271 267 227 218 198 191 187 192 192 196 185 185 186 202 188 203 195 199 203 219 230 233 236 231 229 231 234 237 240 241 241
359 359 358 356 351 343 331 97 193 215 247 296 301 287 305 269 223 216 201 185 189 190 180 173 179 189 187 194 197 190 194 205 206 217 213 231 246 211 223 230 236 243 244 247 244
5 3 9 14 12 358 354 351 242 254 278 300 279 269 253 232 207 205 199 186 187 174 176 174 187 189 190 188 186 198 196 209 212 217 223 238 239 188 231 234 242 243 238 244 250
8 7 11 18 20 13 355 325 298 291 289 283 271 262 279 249 212 209 205 166 163 185 169 181 181 190 195 198 198 198 211 209 213 215 212 231 243 226 227 244 240 233 237 240 244
12 11 14 23 24 29 8 330 304 285 280 284 271 263 263 255 216 212 202 180 176 181 182 176 194 193 195 194 191 198 211 216 231 217 222 226 234 227 236 245 249 243 240 243 245
16 19 22 29 40 39 49 53 49 61 51 11 338 253 261 210 183 193 184 197 144 158 169 174 190 192 185 186 199 207 213 215 202 201 213 217 241 233 227 232 242 242 244 244 245
14 18 28 28 35 37 37 37 53 47 47 24 22 11 183 133 167 182 194 186 146 154 159 173 176 190 187 191 199 209 204 187 196 205 214 217 250 239 230 237 239 242 242 241 243
7 15 16 14 14 24 7 22 357 23 73 7 17 137 149 181 159 160 179 183 140 158 167 153 158 193 193 185 188 206 183 201 187 193 242 200 239 236 213 230 234 233 234 236 238
2 8 11 3 349 9 1 11 51 43 32 15 98 235 97 114 137 157 171 170 157 150 163 174 162 173 210 189 181 177 173 168 165 191 246 209 204 192 212 225 221 227 224 226 230
358 358 6 7 350 360 15 29 43 38 13 14 34 90 94 108 137 157 158 153 155 153 174 165 184 188 181 186 178 166 159 136 169 196 233 189 199 229 224 216 223 224 218 215 219
359 355 358 3 344 355 28 59 61 50 83 75 71 70 98 104 84 93 122 148 158 175 196 203 204 212 201 174 167 168 169 175 184 185 154 178 219 195 191 202 209 213 215 209 218
342 352 356 355 340 342 345 58 93 80 82 83 86 72 74 89 103 83 93 118 157 168 137 139 139 195 189 171 173 179 201 220 291 105 132 185 180 162 202 212 222 218 205 211 221
325 346 349 355 14 350 1 62 108 103 67 56 55 63 112 85 101 87 92 113 150 136 136 124 97 142 181 193 199 182 187 200 204 147 212 190 191 203 199 219 204 204 213 222 232
325 331 360 351 341 9 17 64 95 49 41 70 51 56 110 94 83 85 110 133 149 144 116 98 110 115 130 147 190 172 183 178 174 229 237 150 220 212 226 217 194 197 214 224 247
318 320 349 355 342 26 117 69 27 20 37 66 77 90 88 112 73 78 132 165 132 110 131 129 140 131 149 179 170 175 196 215 172 224 232 206 273 192 206 187 200 211 221 239 261
308 307 314 9 82 45 130 122 36 13 13 45 44 115 126 121 82 112 127 137 172 159 156 141 136 120 141 213 206 209 185 191 219 218 218 300 166 153 181 191 207 218 244 267 290
312 285 260 303 124 147 204 303 346 10 19 12 94 83 112 82 91 148 251 189 191 195 185 179 157 167 127 162 194 212 213 209 212 206 212 206 171 170 187 197 223 245 261 287 300
306 285 243 223 238 218 200 241 233 314 309 25 65 117 123 84 100 130 237 215 211 220 207 205 197 192 205 200 220 230 217 214 223 217 202 144 213 199 179 194 231 259 283 295 301
315 298 268 241 230 172 249 228 240 265 243 291 121 226 162 160 173 200 252 219 225 202 201 215 216 206 237 251 257 251 236 227 233 229 221 201 159 173 212 238 255 272 286 286 291
309 302 289 249 214 197 223 218 203 243 247 239 234 213 193 226 228 241 191 192 206 226 212 227 216 194 180 273 282 274 253 234 233 236 229 221 214 217 233 245 261 268 270 275 292